Regional Weather Roundup
Issued by NWS

Home | Current Version | Previous Version | Text Only | Print | Product List | Glossary Off
Versions: 1 2 3 4 5 6 7 8 9 10 11 12 13 14 15 16 17 18 19 20 21 22 23 24 25 26 27 28 29 30 31 32 33 34 35 36 37 38 39 40 41 42 43 44 45 46 47 48 49 50

628
ASUS44 KMEG 291900
RWRTN
TENNESSEE HOURLY STATE WEATHER ROUNDUP
NATIONAL WEATHER SERVICE MEMPHIS TN
200 PM CDT FRI JUL 29 2016

TNZ002-004-019-021-049-052-054-088>092-292000-
WEST TENNESSEE

CITY           SKY/WX    TMP DP  RH WIND       PRES   REMARKS
MEMPHIS INTL   PTSUNNY   87  76  69 SW7       29.95F HX  97
NWS MEMPHIS      N/A     86 N/A N/A MISG        N/A
JACKSON        PTSUNNY   85  75  72 SW5       29.96F HX  93
DYERSBURG      CLOUDY   N/A N/A N/A MISG        N/A
UNION CITY     PTSUNNY   84  79  84 SW7       29.93F HX  96
PARIS          CLOUDY    81  73  78 SW8       29.97F
LEXINGTON      PTSUNNY   84  73  70 VRB5      29.97F HX  91
$$

TNZ008-025-027-028-033-062-065-066-292000-
NORTH MIDDLE TENNESSEE

CITY           SKY/WX    TMP DP  RH WIND       PRES   REMARKS
NASHVILLE      MOSUNNY   87  72  60 W13G18    29.96F HX  93
CLARKSVILLE    PTSUNNY   85  74  69 SW8       29.94F HX  92
COOKEVILLE     MOSUNNY   86  75  70 VRB6      29.99F HX  95
CROSSVILLE     MOSUNNY   82  70  66 W13G20    30.04F
$$

TNZ061-075-076-078-094-096-097-292000-
SOUTH MIDDLE TENNESSEE

CITY           SKY/WX    TMP DP  RH WIND       PRES   REMARKS
TULLAHOMA      MOSUNNY   86  72  62 W9        30.01F HX  92
WINCHESTER     MOSUNNY   84  72  65 SW10      30.00F
MCMINNVILLE    MOSUNNY   84  75  74 W9        30.00F HX  92
COLUMBIA       PTSUNNY   86  79  79 SW9       29.97F HX  99
SHELBYVILLE    CLOUDY    88  75  66 W9        29.99F HX  97
$$

TNZ017-018-042-046-047-292000-
NORTHEAST TENNESSEE

CITY           SKY/WX    TMP DP  RH WIND       PRES   REMARKS
TRI CITIES     PTSUNNY   87  68  52 NW6       30.00F HX  90
$$

TNZ012-013-036-069-073-074-292000-
CENTRAL EAST TENNESSEE

CITY           SKY/WX    TMP DP  RH WIND       PRES   REMARKS
KNOXVILLE      PTSUNNY   87  67  51 S7        29.97F HX  90
OAK RIDGE      PTSUNNY   88  68  51 S8        29.98F HX  91
GATLINBURG     PTSUNNY   90  66  45 S6        29.97F HX  92
$$

TNZ083-085-099-292000-
SOUTHEAST TENNESSEE

CITY           SKY/WX    TMP DP  RH WIND       PRES   REMARKS
CHATTANOOGA    CLOUDY    89  68  49 SW10      29.98F HX  93
$$

SKY/WX REPORTED AS FAIR MEANS FEW OR NO CLOUDS BELOW
12 THOUSAND FEET.





USA.gov is the U.S. government's official web portal to all federal, state and local government web resources and services.